This demonstration page uses our WeatherBlox Daily Observations layout. Learn more.

39.92423, -83.80882

Hourly Observations for April 24, 2019

Temp ( °F °C ) Dew Point ( °F °C ) Humidity (%) Winds ( mph kmh ) Pressure ( in mb ) Visibility ( mi km ) Precip ( " mm )
12:56 am 00:56 Clear 48 8.9 44 6.7 86 86 NNW 7 11 30.01 1016 10 16.0934 0 0
1:56 am 01:56 Clear 47 8.3 43 6.1 86 86 NW 6 9 30.02 1017 10 16.0934 0 0
2:56 am 02:56 Clear 45 7.2 42 5.6 90 90 NNW 5 7 30.01 1016 10 16.0934 0 0
3:56 am 03:56 Clear 44 6.7 42 5.6 93 93 NW 3 6 30.01 1016 10 16.0934 0 0
4:56 am 04:56 Clear 42 5.6 42 5.6 100 100 WNW 3 6 30.01 1016 10 16.0934 0 0
5:56 am 05:56 Clear 42 5.6 41 5 96 96 Calm 30.02 1017 10 16.0934 0 0
6:56 am 06:56 Sunny 41 5 41 5 100 100 Calm 30.03 1017 10 16.0934 0.01 0.254
7:56 am 07:56 Sunny 45 7.2 43 6.1 93 93 NNE 3 6 30.04 1017 10 16.0934 0 0
8:56 am 08:56 Sunny 48 8.9 42 5.6 80 80 ENE 8 13 30.05 1018 10 16.0934 0 0
9:56 am 09:56 Sunny 50 10 42 5.6 74 74 E 6 9 30.05 1018 10 16.0934 0 0
11:56 am 11:56 Cloudy 53 11.7 40 4.4 61 61 Calm 30.06 1018 10 16.0934 0 0
12:56 pm 12:56 Cloudy 54 12.2 40 4.4 59 59 Calm 30.04 1017 10 16.0934 0 0
1:56 pm 13:56 Cloudy 55 12.8 41 5 59 59 Calm 30.03 1017 10 16.0934 0 0
2:56 pm 14:56 Mostly Cloudy 56 13.3 39 3.9 53 53 Calm 30 1016 10 16.0934 0 0
3:56 pm 15:56 Partly Cloudy 59 15 39 3.9 48 48 ESE 6 9 29.95 1014 10 16.0934 0 0.0254
4:56 pm 16:56 Cloudy 60 15.6 38 3.3 44 44 VRB 3 6 29.95 1014 10 16.0934 0 0
5:56 pm 17:56 Mostly Cloudy 60 15.6 39 3.9 46 46 ESE 8 13 29.92 1013 10 16.0934 0 0
6:56 pm 18:56 Cloudy 59 15 40 4.4 49 49 E 6 9 29.92 1013 10 16.0934 0.01 0.254
8:56 pm 20:56 Cloudy 55 12.8 42 5.6 62 62 E 6 9 29.92 1013 10 16.0934 0 0
9:56 pm 21:56 Cloudy with Light Rain 55 12.8 42 5.6 62 62 E 9 15 29.92 1013 10 16.0934 0 0.0254
10:56 pm 22:56 Mostly Cloudy 55 12.8 42 5.6 62 62 SE 8 13 29.91 1013 10 16.0934 0 0.0254
11:56 pm 23:56 Cloudy 54 12.2 43 6.1 67 67 Calm 29.9 1012 10 16.0934 0 0.0254

Powered by AerisWeather